DLH555 EDDB-EDDF

Flight info

Callsign DLH555
Flight time 0h 43m
Altitude 20000
Route KISUC Z117 ODLUN DCT ORTAG T177 ODIPI T157 KERAX
Aircraft A346/H-SDE2E3FGHIJ3J4J5M1RWXY/LB1D1

Departure

Time 2026-04-17 06:58
Airport Berlin Brandenburg Airport (EDDB)

Arrival

Time 2026-04-17 07:42
Airport Frankfurt Main Airport (EDDF)
Time Latitude Longitude Altitude Speed Heading
2026-04-17 06:38 52.36622 13.49986 150 ft 0 kts 249°
2026-04-17 06:51 52.36630 13.50019 157 ft 4 kts 249°
2026-04-17 06:51 52.36639 13.50058 157 ft 4 kts 243°
2026-04-17 06:51 52.36653 13.50087 157 ft 4 kts 214°
2026-04-17 06:52 52.36669 13.50097 158 ft 4 kts 176°
2026-04-17 06:52 52.36686 13.50090 158 ft 4 kts 159°
2026-04-17 06:52 52.36711 13.50074 158 ft 4 kts 159°
2026-04-17 06:52 52.36717 13.50070 158 ft 0 kts 159°
2026-04-17 06:57 52.35799 13.52138 167 ft 25 kts 249°
2026-04-17 06:57 52.35679 13.51629 166 ft 87 kts 249°
2026-04-17 06:57 52.35387 13.50382 165 ft 145 kts 250°
2026-04-17 06:58 52.34992 13.48496 246 ft 185 kts 252°
2026-04-17 06:58 52.34645 13.46202 1092 ft 176 kts 270°
2026-04-17 06:58 52.34506 13.44160 1576 ft 190 kts 247°
2026-04-17 06:58 52.33660 13.42382 1935 ft 205 kts 229°
2026-04-17 06:59 52.32620 13.40637 2246 ft 223 kts 227°
2026-04-17 06:59 52.31466 13.38747 2612 ft 236 kts 227°
2026-04-17 06:59 52.30297 13.36847 3242 ft 238 kts 227°
2026-04-17 06:59 52.29121 13.34927 3923 ft 239 kts 228°
2026-04-17 07:00 52.27937 13.32984 4730 ft 241 kts 229°
2026-04-17 07:00 52.26756 13.31041 5579 ft 241 kts 228°
2026-04-17 07:00 52.25567 13.29084 6402 ft 244 kts 228°
2026-04-17 07:00 52.24466 13.26966 7172 ft 246 kts 240°
2026-04-17 07:01 52.23661 13.24465 7812 ft 254 kts 249°
2026-04-17 07:01 52.22958 13.21690 8329 ft 271 kts 251°
2026-04-17 07:01 52.22243 13.18764 9011 ft 281 kts 251°
2026-04-17 07:01 52.21509 13.15783 9992 ft 285 kts 250°
2026-04-17 07:02 52.20755 13.12766 11207 ft 288 kts 250°
2026-04-17 07:02 52.19989 13.09730 12480 ft 291 kts 251°
2026-04-17 07:02 52.19210 13.06650 13744 ft 295 kts 251°
2026-04-17 07:02 52.18417 13.03525 14869 ft 301 kts 251°
2026-04-17 07:03 52.17610 13.00351 15974 ft 305 kts 252°
2026-04-17 07:03 52.16825 12.97110 17067 ft 309 kts 256°
2026-04-17 07:03 52.16171 12.93751 18169 ft 313 kts 260°
2026-04-17 07:03 52.15644 12.90231 18913 ft 327 kts 263°
2026-04-17 07:04 52.15306 12.87791 19297 ft 340 kts 263°
2026-04-17 07:04 52.14774 12.83927 19834 ft 359 kts 262°
2026-04-17 07:04 52.14206 12.79836 20198 ft 382 kts 262°
2026-04-17 07:04 52.13386 12.74010 20257 ft 407 kts 262°
2026-04-17 07:05 52.12741 12.69496 20259 ft 410 kts 261°
2026-04-17 07:05 52.12090 12.64960 20258 ft 411 kts 261°
2026-04-17 07:05 52.11440 12.60416 20259 ft 411 kts 261°
2026-04-17 07:05 52.10999 12.57348 20259 ft 412 kts 261°
2026-04-17 07:06 52.10345 12.52807 20258 ft 412 kts 261°
2026-04-17 07:06 52.09696 12.48321 20260 ft 412 kts 261°
2026-04-17 07:06 52.09029 12.43723 20259 ft 412 kts 261°
2026-04-17 07:06 52.08370 12.39181 20264 ft 412 kts 261°
2026-04-17 07:07 52.07545 12.34690 20257 ft 416 kts 253°
2026-04-17 07:07 52.06322 12.30387 20258 ft 421 kts 245°
2026-04-17 07:07 52.04730 12.26374 20262 ft 425 kts 238°
2026-04-17 07:07 52.02975 12.22500 20261 ft 425 kts 237°
2026-04-17 07:08 52.01223 12.18714 20261 ft 425 kts 237°
2026-04-17 07:08 51.99441 12.14876 20261 ft 425 kts 237°
2026-04-17 07:08 51.97661 12.11032 20262 ft 425 kts 237°
2026-04-17 07:08 51.95888 12.07201 20262 ft 425 kts 237°
2026-04-17 07:09 51.94112 12.03359 20264 ft 425 kts 237°
2026-04-17 07:09 51.92340 11.99529 20258 ft 425 kts 237°
2026-04-17 07:09 51.90565 11.95696 20263 ft 425 kts 237°
2026-04-17 07:09 51.88790 11.91869 20263 ft 425 kts 237°
2026-04-17 07:10 51.87012 11.88040 20261 ft 425 kts 237°
2026-04-17 07:10 51.85234 11.84216 20264 ft 425 kts 237°
2026-04-17 07:10 51.83452 11.80412 20261 ft 425 kts 236°
2026-04-17 07:10 51.81657 11.76614 20259 ft 424 kts 236°
2026-04-17 07:11 51.79862 11.72830 20262 ft 424 kts 236°
2026-04-17 07:11 51.78062 11.69042 20258 ft 424 kts 236°
2026-04-17 07:11 51.76266 11.65265 20259 ft 424 kts 236°
2026-04-17 07:11 51.74464 11.61482 20261 ft 424 kts 236°
2026-04-17 07:12 51.72662 11.57705 20261 ft 424 kts 236°
2026-04-17 07:12 51.70859 11.53932 20261 ft 424 kts 236°
2026-04-17 07:12 51.69057 11.50165 20259 ft 424 kts 236°
2026-04-17 07:12 51.67251 11.46396 20258 ft 424 kts 236°
2026-04-17 07:13 51.65447 11.42636 20259 ft 424 kts 236°
2026-04-17 07:13 51.63641 11.38879 20255 ft 424 kts 236°
2026-04-17 07:13 51.61835 11.35125 20257 ft 424 kts 236°
2026-04-17 07:13 51.60030 11.31382 20255 ft 424 kts 236°
2026-04-17 07:14 51.58222 11.27637 20255 ft 423 kts 235°
2026-04-17 07:14 51.56411 11.23893 20254 ft 423 kts 235°
2026-04-17 07:14 51.54602 11.20158 20253 ft 423 kts 235°
2026-04-17 07:14 51.52818 11.16478 20253 ft 423 kts 235°
2026-04-17 07:15 51.51007 11.12747 20255 ft 423 kts 236°
2026-04-17 07:15 51.49270 11.08938 20252 ft 421 kts 238°
2026-04-17 07:15 51.47676 11.04984 20256 ft 420 kts 242°
2026-04-17 07:15 51.46207 11.00871 20253 ft 419 kts 244°
2026-04-17 07:16 51.44805 10.96841 20253 ft 419 kts 244°
2026-04-17 07:16 51.43383 10.92749 20252 ft 419 kts 244°
2026-04-17 07:16 51.41959 10.88661 20252 ft 419 kts 244°
2026-04-17 07:16 51.40535 10.84583 20250 ft 419 kts 243°
2026-04-17 07:17 51.39106 10.80501 20254 ft 419 kts 243°
2026-04-17 07:17 51.37677 10.76430 20255 ft 419 kts 243°
2026-04-17 07:17 51.34811 10.68288 20252 ft 419 kts 243°
2026-04-17 07:18 51.33375 10.64221 20256 ft 419 kts 243°
2026-04-17 07:18 51.31939 10.60161 20256 ft 419 kts 243°
2026-04-17 07:18 51.30498 10.56091 20257 ft 419 kts 243°
2026-04-17 07:18 51.29061 10.52047 20250 ft 419 kts 243°
2026-04-17 07:19 51.27521 10.48070 20247 ft 421 kts 239°
2026-04-17 07:19 51.25833 10.44237 20253 ft 422 kts 236°
2026-04-17 07:19 51.24014 10.40549 20244 ft 422 kts 234°
2026-04-17 07:19 51.22170 10.36901 20248 ft 422 kts 234°
2026-04-17 07:20 51.20321 10.33255 20240 ft 422 kts 234°
2026-04-17 07:20 51.18470 10.29601 20238 ft 422 kts 234°
2026-04-17 07:20 51.16605 10.25983 20230 ft 423 kts 231°
2026-04-17 07:20 51.14280 10.23065 20215 ft 430 kts 211°
2026-04-17 07:21 51.11441 10.21519 20233 ft 437 kts 192°
2026-04-17 07:21 51.08389 10.21270 20255 ft 440 kts 182°
2026-04-17 07:21 51.05324 10.21269 20248 ft 440 kts 182°
2026-04-17 07:21 51.02260 10.21271 20241 ft 440 kts 182°
2026-04-17 07:22 50.99195 10.21253 20238 ft 441 kts 182°
2026-04-17 07:22 50.96166 10.21216 20240 ft 440 kts 182°
2026-04-17 07:22 50.93100 10.21167 20233 ft 441 kts 182°
2026-04-17 07:22 50.90041 10.21112 20232 ft 441 kts 183°
2026-04-17 07:23 50.86974 10.21055 20236 ft 441 kts 183°
2026-04-17 07:23 50.83911 10.20875 20212 ft 439 kts 189°
2026-04-17 07:23 50.81043 10.19436 20205 ft 431 kts 210°
2026-04-17 07:23 50.78683 10.16602 20235 ft 424 kts 229°
2026-04-17 07:24 50.77036 10.12803 20243 ft 418 kts 245°
2026-04-17 07:24 50.75747 10.08666 20166 ft 418 kts 246°
2026-04-17 07:24 50.74473 10.04553 19657 ft 415 kts 246°
2026-04-17 07:24 50.73199 10.00483 19173 ft 410 kts 246°
2026-04-17 07:25 50.71929 9.96473 18662 ft 406 kts 245°
2026-04-17 07:25 50.70666 9.92514 18038 ft 402 kts 245°
2026-04-17 07:25 50.69400 9.88569 17376 ft 399 kts 245°
2026-04-17 07:25 50.68153 9.84693 16803 ft 394 kts 245°
2026-04-17 07:26 50.66914 9.80852 16263 ft 389 kts 245°
2026-04-17 07:26 50.65692 9.77069 15737 ft 385 kts 245°
2026-04-17 07:26 50.64475 9.73305 15223 ft 381 kts 245°
2026-04-17 07:26 50.63108 9.69743 14698 ft 380 kts 233°
2026-04-17 07:27 50.61177 9.66896 14191 ft 381 kts 217°
2026-04-17 07:27 50.58865 9.65000 13659 ft 381 kts 204°
2026-04-17 07:27 50.56370 9.63483 13136 ft 377 kts 202°
2026-04-17 07:27 50.53956 9.62070 12639 ft 373 kts 202°
2026-04-17 07:28 50.51543 9.60642 12140 ft 368 kts 202°
2026-04-17 07:28 50.49129 9.59189 11655 ft 364 kts 202°
2026-04-17 07:28 50.46835 9.57738 11349 ft 354 kts 205°
2026-04-17 07:28 50.44627 9.56221 11158 ft 340 kts 205°
2026-04-17 07:29 50.42501 9.54759 10987 ft 326 kts 205°
2026-04-17 07:29 50.40473 9.53365 10790 ft 310 kts 205°
2026-04-17 07:29 50.38529 9.52032 10653 ft 296 kts 205°
2026-04-17 07:29 50.36689 9.50772 10532 ft 283 kts 205°
2026-04-17 07:30 50.34905 9.49552 10409 ft 276 kts 205°
2026-04-17 07:30 50.33159 9.48360 10299 ft 272 kts 205°
2026-04-17 07:30 50.31436 9.47183 10184 ft 270 kts 205°
2026-04-17 07:30 50.29710 9.46006 9830 ft 270 kts 205°
2026-04-17 07:31 50.27991 9.44833 9502 ft 268 kts 205°
2026-04-17 07:31 50.26290 9.43674 9190 ft 266 kts 205°
2026-04-17 07:31 50.24727 9.42187 8882 ft 263 kts 223°
2026-04-17 07:31 50.23479 9.40127 8591 ft 260 kts 232°
2026-04-17 07:32 50.22488 9.37769 8260 ft 259 kts 244°
2026-04-17 07:32 50.21848 9.35147 7972 ft 257 kts 254°
2026-04-17 07:32 50.21392 9.32458 7682 ft 255 kts 255°
2026-04-17 07:32 50.20921 9.29787 7412 ft 254 kts 254°
2026-04-17 07:33 50.20410 9.27152 7113 ft 253 kts 252°
2026-04-17 07:33 50.19864 9.24542 6845 ft 252 kts 251°
2026-04-17 07:33 50.19294 9.21962 6544 ft 251 kts 250°
2026-04-17 07:33 50.18705 9.19400 6270 ft 250 kts 249°
2026-04-17 07:34 50.18104 9.16860 5976 ft 249 kts 249°
2026-04-17 07:34 50.17493 9.14333 5698 ft 248 kts 249°
2026-04-17 07:34 50.16873 9.11804 5422 ft 247 kts 248°
2026-04-17 07:34 50.16252 9.09289 5147 ft 247 kts 248°
2026-04-17 07:35 50.15623 9.06748 4859 ft 247 kts 248°
2026-04-17 07:35 50.14991 9.04192 4563 ft 248 kts 248°
2026-04-17 07:35 50.14333 9.01520 4273 ft 256 kts 248°
2026-04-17 07:35 50.13663 8.98791 4233 ft 248 kts 248°
2026-04-17 07:36 50.13026 8.96177 4220 ft 234 kts 248°
2026-04-17 07:36 50.12453 8.93822 4212 ft 232 kts 248°
2026-04-17 07:36 50.11874 8.91441 4220 ft 230 kts 248°
2026-04-17 07:36 50.11327 8.89182 4201 ft 215 kts 248°
2026-04-17 07:37 50.10803 8.87006 4149 ft 204 kts 248°
2026-04-17 07:37 50.10294 8.84897 3932 ft 201 kts 248°
2026-04-17 07:37 50.09815 8.82906 3688 ft 191 kts 248°
2026-04-17 07:37 50.09360 8.81014 3383 ft 177 kts 248°
2026-04-17 07:38 50.08942 8.79274 3106 ft 161 kts 248°
2026-04-17 07:38 50.08559 8.77680 2885 ft 147 kts 248°
2026-04-17 07:38 50.08199 8.76181 2711 ft 143 kts 248°
2026-04-17 07:38 50.07848 8.74724 2535 ft 142 kts 248°
2026-04-17 07:39 50.07499 8.73268 2362 ft 141 kts 248°
2026-04-17 07:39 50.07151 8.71820 2183 ft 141 kts 248°
2026-04-17 07:39 50.06801 8.70358 1995 ft 141 kts 248°
2026-04-17 07:39 50.06452 8.68900 1807 ft 140 kts 248°
2026-04-17 07:40 50.06089 8.67382 1596 ft 140 kts 248°
2026-04-17 07:40 50.05717 8.65827 1384 ft 139 kts 249°
2026-04-17 07:40 50.05342 8.64258 1168 ft 140 kts 249°
2026-04-17 07:40 50.04976 8.62724 955 ft 140 kts 249°
2026-04-17 07:41 50.04592 8.61115 742 ft 140 kts 249°
2026-04-17 07:41 50.04218 8.59548 539 ft 141 kts 249°
2026-04-17 07:41 50.03838 8.57954 361 ft 135 kts 250°
2026-04-17 07:41 50.03544 8.56717 361 ft 83 kts 250°
2026-04-17 07:42 50.03436 8.56219 361 ft 21 kts 264°
2026-04-17 07:42 50.03476 8.55879 359 ft 16 kts 281°
2026-04-17 07:42 50.03476 8.55872 356 ft 0 kts 281°